Total_Precipitation_Accumulation
0.00 0.00 0.00 0.00 0.00 0.00 0.00 0.00 0.00 0.00 0.00 0.00 0.00 0.00 0.00 0.00 0.00 0.00 0.00 0.00 0.00 0.00 0.00 0.01 0.01 0.01 0.01 0.01 0.00 0.00 0.00 0.00 0.00 0.00 0.00 0.01 0.01 0.01 0.01 0.01 0.05 0.09 0.02
0.00 0.00 0.00 0.00 0.00 0.00 0.00 0.00 0.00 0.00 0.00 0.00 0.00 0.00 0.00 0.00 0.00 0.00 0.00 0.00 0.00 0.00 0.00 0.00 0.00 0.00 0.00 0.00 0.00 0.00 0.00 0.00 0.00 0.00 0.00 0.00 0.01 0.01 0.00 0.00 0.04 0.06 0.01
0.00 0.00 0.00 0.00 0.00 0.00 0.00 0.00 0.00 0.00 0.00 0.00 0.00 0.00 0.00 0.00 0.00 0.00 0.00 0.00 0.00 0.00 0.00 0.00 0.00 0.00 0.00 0.00 0.00 0.00 0.00 0.00 0.00 0.00 0.00 0.02 0.00 0.00 0.00 0.00 0.00 0.00 0.00
0.00 0.00 0.00 0.00 0.00 0.00 0.00 0.00 0.00 0.00 0.00 0.00 0.00 0.00 0.00 0.00 0.00 0.00 0.00 0.00 0.00 0.00 0.00 0.00 0.00 0.00 0.00 0.00 0.00 0.00 0.00 0.00 0.00 0.00 0.03 0.13 0.03 0.01 0.01 0.00 0.00 0.00 0.00
0.00 0.00 0.00 0.00 0.00 0.00 0.00 0.00 0.00 0.00 0.01 0.01 0.00 0.00 0.00 0.00 0.00 0.00 0.00 0.00 0.00 0.00 0.00 0.00 0.00 0.00 0.00 0.00 0.00 0.00 0.00 0.00 0.00 0.00 0.03 0.12 0.08 0.04 0.03 0.01 0.00 0.00 0.00
0.00 0.00 0.00 0.00 0.00 0.00 0.00 0.00 0.01 0.01 0.01 0.01 0.00 0.00 0.00 0.00 0.00 0.00 0.00 0.00 0.00 0.00 0.00 0.00 0.00 0.00 0.00 0.00 0.00 0.01 0.00 0.00 0.00 0.01 0.01 0.05 0.12 0.12 0.11 0.07 0.03 0.01 0.00
0.00 0.00 0.00 0.00 0.00 0.00 0.00 0.00 0.00 0.00 0.00 0.00 0.00 0.00 0.00 0.00 0.00 0.00 0.00 0.00 0.00 0.00 0.00 0.00 0.00 0.00 0.00 0.00 0.00 0.01 0.01 0.01 0.01 0.03 0.04 0.07 0.15 0.20 0.35 0.37 0.23 0.11 0.04
0.00 0.00 0.00 0.00 0.00 0.00 0.00 0.00 0.00 0.00 0.00 0.00 0.00 0.00 0.00 0.00 0.01 0.01 0.00 0.00 0.00 0.00 0.00 0.00 0.00 0.00 0.00 0.01 0.01 0.03 0.06 0.05 0.04 0.07 0.09 0.10 0.15 0.22 0.51 0.59 0.47 0.36 0.25
0.00 0.00 0.00 0.00 0.00 0.00 0.00 0.00 0.00 0.00 0.00 0.00 0.00 0.00 0.00 0.00 0.01 0.01 0.01 0.01 0.02 0.02 0.01 0.01 0.00 0.01 0.01 0.02 0.05 0.10 0.12 0.09 0.06 0.08 0.06 0.09 0.14 0.21 0.47 0.45 0.36 0.35 0.32
0.00 0.00 0.00 0.00 0.00 0.00 0.00 0.01 0.00 0.00 0.00 0.00 0.00 0.00 0.00 0.00 0.00 0.01 0.01 0.01 0.01 0.02 0.01 0.01 0.02 0.03 0.03 0.05 0.10 0.10 0.10 0.05 0.05 0.07 0.03 0.04 0.11 0.27 0.39 0.34 0.30 0.31 0.29
0.00 0.00 0.00 0.00 0.00 0.00 0.00 0.01 0.01 0.01 0.01 0.01 0.01 0.01 0.01 0.01 0.01 0.03 0.02 0.04 0.04 0.06 0.06 0.05 0.07 0.09 0.10 0.10 0.14 0.14 0.10 0.10 0.13 0.03 0.02 0.03 0.13 0.28 0.33 0.30 0.30 0.31 0.29
0.00 0.00 0.00 0.00 0.00 0.00 0.00 0.01 0.01 0.01 0.02 0.02 0.02 0.05 0.06 0.08 0.06 0.04 0.09 0.12 0.14 0.19 0.17 0.14 0.19 0.19 0.13 0.06 0.12 0.32 0.11 0.10 0.10 0.06 0.09 0.07 0.16 0.29 0.35 0.31 0.26 0.25 0.25
0.00 0.00 0.00 0.00 0.00 0.00 0.00 0.00 0.01 0.04 0.12 0.13 0.13 0.17 0.20 0.22 0.15 0.09 0.13 0.20 0.23 0.25 0.22 0.29 0.36 0.23 0.17 0.16 0.16 0.23 0.15 0.13 0.12 0.14 0.14 0.17 0.26 0.40 0.45 0.35 0.29 0.27 0.26
0.00 0.00 0.01 0.01 0.01 0.00 0.00 0.02 0.03 0.05 0.10 0.13 0.12 0.15 0.26 0.22 0.21 0.20 0.19 0.17 0.21 0.23 0.32 0.33 0.32 0.36 0.36 0.29 0.26 0.25 0.28 0.31 0.25 0.25 0.25 0.27 0.38 0.49 0.51 0.38 0.28 0.26 0.25
0.02 0.03 0.04 0.04 0.02 0.02 0.02 0.04 0.05 0.07 0.09 0.10 0.16 0.20 0.27 0.30 0.32 0.36 0.30 0.26 0.20 0.30 0.46 0.57 0.48 0.46 0.50 0.42 0.34 0.31 0.32 0.33 0.30 0.29 0.28 0.32 0.28 0.35 0.42 0.39 0.32 0.26 0.23
0.08 0.11 0.12 0.11 0.11 0.10 0.08 0.09 0.13 0.15 0.15 0.19 0.28 0.31 0.50 0.57 0.54 0.51 0.45 0.43 0.34 0.46 0.61 0.66 0.60 0.58 0.49 0.49 0.37 0.33 0.30 0.31 0.30 0.33 0.34 0.31 0.30 0.26 0.27 0.31 0.32 0.30 0.28
0.19 0.23 0.27 0.29 0.30 0.32 0.32 0.29 0.33 0.31 0.35 0.42 0.56 0.68 0.86 0.98 0.97 0.94 0.80 0.61 0.61 0.75 0.77 0.67 0.60 0.71 0.54 0.49 0.40 0.46 0.43 0.40 0.31 0.26 0.27 0.26 0.23 0.23 0.21 0.22 0.30 0.35 0.39
0.45 0.57 0.66 0.71 0.80 0.86 0.75 0.64 0.63 0.71 0.79 0.75 0.82 0.94 0.98 1.03 1.09 1.17 0.92 0.70 0.83 0.97 0.92 0.82 0.79 0.85 0.72 0.70 0.63 0.57 0.47 0.37 0.22 0.17 0.15 0.13 0.15 0.13 0.15 0.24 0.29 0.33 0.47
0.95 1.15 1.32 1.50 1.54 1.35 1.12 1.00 0.94 0.89 0.81 0.66 0.57 0.57 0.58 0.56 0.62 0.67 0.44 0.38 0.59 0.69 0.61 0.60 0.74 0.78 0.72 0.79 0.76 0.51 0.34 0.21 0.14 0.10 0.08 0.06 0.08 0.10 0.11 0.21 0.24 0.32 0.50
1.39 1.90 2.31 2.31 1.89 1.45 1.07 0.81 0.72 0.65 0.53 0.40 0.32 0.27 0.22 0.21 0.26 0.34 0.20 0.20 0.46 0.52 0.46 0.56 0.60 0.57 0.48 0.54 0.49 0.24 0.17 0.13 0.10 0.08 0.06 0.05 0.07 0.08 0.10 0.12 0.15 0.21 0.41
2.06 2.75 2.98 2.60 2.09 1.45 1.01 0.71 0.45 0.30 0.22 0.17 0.11 0.09 0.10 0.12 0.18 0.30 0.22 0.25 0.40 0.42 0.36 0.39 0.42 0.35 0.23 0.40 0.42 0.19 0.07 0.04 0.06 0.05 0.04 0.03 0.04 0.06 0.09 0.13 0.16 0.20 0.20
2.11 2.60 2.61 2.18 1.64 1.04 0.66 0.45 0.29 0.17 0.10 0.07 0.05 0.04 0.04 0.07 0.13 0.24 0.20 0.15 0.21 0.23 0.18 0.19 0.29 0.30 0.25 0.39 0.44 0.31 0.12 0.06 0.04 0.03 0.03 0.03 0.04 0.08 0.11 0.13 0.21 0.28 0.30
2.00 1.91 1.76 1.32 0.80 0.53 0.35 0.26 0.18 0.14 0.12 0.08 0.05 0.04 0.02 0.03 0.04 0.07 0.09 0.11 0.16 0.23 0.22 0.23 0.27 0.29 0.23 0.23 0.32 0.36 0.22 0.08 0.05 0.06 0.08 0.08 0.10 0.16 0.21 0.24 0.28 0.30 0.37
1.50 1.16 0.87 0.67 0.42 0.28 0.24 0.23 0.19 0.13 0.11 0.08 0.06 0.04 0.03 0.03 0.03 0.04 0.05 0.05 0.10 0.17 0.18 0.15 0.17 0.20 0.20 0.15 0.18 0.24 0.25 0.22 0.18 0.09 0.09 0.13 0.17 0.24 0.32 0.39 0.45 0.41 0.41
0.83 0.67 0.53 0.44 0.33 0.32 0.32 0.31 0.31 0.19 0.12 0.08 0.07 0.06 0.05 0.05 0.05 0.05 0.05 0.04 0.06 0.09 0.10 0.09 0.10 0.12 0.13 0.11 0.11 0.16 0.27 0.33 0.35 0.26 0.15 0.14 0.17 0.19 0.29 0.39 0.50 0.53 0.47
0.34 0.35 0.36 0.39 0.43 0.39 0.32 0.28 0.27 0.21 0.16 0.13 0.09 0.08 0.08 0.07 0.07 0.08 0.09 0.08 0.10 0.10 0.10 0.10 0.12 0.12 0.13 0.13 0.14 0.17 0.23 0.31 0.36 0.39 0.32 0.24 0.23 0.24 0.29 0.40 0.63 0.75 0.67